Location: Étavigny
(49.1201°N, 2.9800°E)
Time: 08:31:58
(UTC+00:00)

SL-16 R/B - Pass Details

Date: 28 January 2023
Orbit: 842 x 846 km, 71.0° (Epoch: 23 March)

Event Time Altitude Azimuth Distance (km) Brightness Sun altitude
Rises 19:56:49 0° 223° (SW) 3,389 5.7 -32.4°
Reaches altitude 10° 19:59:19 10° 228° (SW) 2,459 5.0 -32.8°
Enters shadow 20:04:04 49° 278° (W) 1,087 3.0 -33.6°
